Главная страница
METAR-TAF:

METAR-TAF

Аэропорты :

New Castle, Пенсильвания, США

широта: 41-01-31N, долгота: 080-24-48W, высота над уровнем моря: 326 м

Текущие метеонаблюдения

Эта сводка был подготовлена 54 минут назад, в 00:56 UTC
Ветер 5 Узел от западный
Температура -8°C
Влажность 85%
Давление 1026 hPa
Видимость: 16.1 км
ясное небо

METAR: KUCP 130056Z AUTO 27005KT 10SM CLR M08/M10 A3030 RMK AO2 SLP291 T10831100

Время: 20:50 (01:50 UTC)


TAF: отсутствует

Метеонаблюдения и прогнозы для более 4000 аэропортов (сводки METAR и TAF).

Имеющиеся станции представлены на карте желтыми и красными точками.

Чтобы увидеть название станции, наведите на нее мышь.

Затем щелкните, чтобы увидеть метеонаблюдения и метеопрогнозы.

Управление картой: чтобы увеличить масштаб, щелкните зеленые кнопки с черным крестиком; чтобы уменьшить масштаб, щелкните зеленую кнопку с тире; для просмотра соседних карт щелкайте зеленые стрелки.


METAR-TAF: